Location: Berenberg
(47.9008°N, 9.0246°E)
Time: 05:38:30
(UTC+00:00)

Daily predictions for brighter satellites

Satellite Brightness Start Highest point End
(mag) Time Altitude Azimuth Time Altitude Azimuth Time Altitude Azimuth
ATLAS 2AS CENTAUR R/B 3.2 00:09:45 41° W 00:11:48 55° NW 00:18:30 10° NE
IDEFIX/ARIANE 42P 4.0 00:12:08 10° NE 00:16:25 26° E 00:16:41 26° E
Meteor 1-5 Rocket 4.2 00:16:08 10° NNW 00:20:58 69° NW 00:20:58 69° NW
Cosmos 1953 Rocket 4.4 00:18:49 10° N 00:22:18 48° NNE 00:22:18 48° NNE
Cosmos 1980 Rocket 2.7 00:19:55 10° NW 00:24:20 47° WNW 00:24:20 47° WNW
USA 234 4.3 00:20:34 10° E 00:26:41 44° NNE 00:32:48 10° WNW
Cosmos 44 Rocket 4.1 00:29:47 45° E 00:29:47 45° E 00:33:55 10° NE
COSMOS 2406 3.9 00:32:29 41° ESE 00:32:38 41° ESE 00:38:00 10° NE
Meteor 2-10 4.3 00:31:02 10° NNW 00:36:03 64° WNW 00:36:03 64° WNW
Cosmos 1634 Rocket 4.0 00:35:56 60° SE 00:36:44 67° E 00:42:51 10° NNE
Cosmos 2369 3.6 00:31:06 10° NNW 00:36:37 81° WNW 00:36:37 81° WNW
Cosmos 724 4.2 00:44:49 72° SSE 00:45:09 74° ESE 00:51:07 10° NE
Cosmos 2084 4.4 00:46:23 42° N 00:46:23 42° N 00:49:38 10° NE
Cosmos 1607 3.9 00:47:22 62° SE 00:47:50 64° ESE 00:54:01 10° NE
Cosmos 1627 Rocket 4.4 00:41:41 10° NNW 00:47:56 72° W 00:48:29 68° SW
Cosmos-2242 3.6 00:52:12 54° NNE 00:52:12 54° NNE 00:55:32 10° NNE
Cosmos 2360 Rocket 3.7 00:47:14 10° NNW 00:52:26 35° NE 00:57:36 10° ESE
Cosmos 2333 Rocket 2.8 00:48:04 10° NNW 00:53:39 54° ENE 00:57:05 23° SE
USA 281 3.3 00:51:27 31° SE 00:54:50 74° ENE 01:01:25 10° NNW
FENGYUN 3A 4.4 00:50:31 10° NNE 00:55:40 42° E 00:56:43 38° SE
Cosmos 2082 Rocket 2.2 00:59:24 63° W 00:59:58 67° WNW 01:05:42 10° NNE
Meteor 2-2 Rocket 4.1 01:02:52 71° S 01:03:30 84° ESE 01:09:10 10° NNE
Cosmos 2279 Rocket 4.0 01:03:59 55° SSE 01:05:24 76° E 01:11:40 10° NNE
Cosmos 2278 4.1 01:01:47 10° NNW 01:07:28 62° ENE 01:11:11 22° SE
Cosmos 2322 Rocket 3.1 01:02:27 10° NNW 01:07:53 46° NE 01:13:18 10° SE
Cosmos 2221 3.6 01:07:40 34° E 01:07:53 34° E 01:11:38 10° NNE
Cosmos 1486 Rocket 4.1 01:03:03 10° NNW 01:08:17 72° ENE 01:09:36 50° SE
NPP 4.0 01:03:34 10° NNE 01:08:52 55° E 01:09:57 47° SE
Resurs 1-4 Rocket 4.0 01:05:23 10° NE 01:09:28 22° E 01:12:17 15° SE
NOSS 3-3 (A) 3.6 01:14:12 61° SSE 01:14:47 66° SE 01:20:51 10° NE
ACS3 Solar Sail 1.9 01:11:29 10° N 01:17:25 58° WNW 01:18:33 50° WSW
Cosmos 1777 Rocket 4.1 01:13:39 10° NNW 01:18:56 76° ENE 01:20:41 43° SE
Cosmos 2219 Rocket 3.7 01:16:34 10° NNW 01:21:46 36° NE 01:26:57 10° ESE
CZ-4C R/B 2.2 01:22:06 46° WNW 01:22:44 49° NW 01:28:08 10° NE
SL-16 R/B 2.1 01:17:20 10° NNW 01:23:03 85° WSW 01:24:53 45° SSE
H-2A R/B 4.2 01:20:20 10° NE 01:24:06 20° E 01:27:55 10° SE
GP-B 4.0 01:20:05 10° NNW 01:23:25 35° WNW 01:23:25 35° WNW
Cosmos 1271 Rocket 3.6 01:27:38 40° E 01:27:38 40° E 01:30:36 10° NNE
Meteor 1-14 Rocket 4.2 01:24:31 10° N 01:30:18 80° ENE 01:32:37 37° SSE
SL-4 R/B 2.7 01:31:34 43° ESE 01:31:34 43° ESE 01:34:12 10° ESE
ATLAS 3B R/B 3.9 01:24:23 10° NW 01:29:24 26° W 01:29:24 26° W
NOSS 3-3 (C) 3.6 01:30:27 56° S 01:31:32 72° SE 01:37:42 10° NE
Cosmos 2058 Rocket 3.6 01:32:04 46° WNW 01:32:04 46° WNW 01:36:05 10° N
USA 267 3.7 01:25:36 10° ENE 01:31:57 50° SE 01:34:01 38° S
Cosmos 2266 Rocket 4.0 01:29:44 10° N 01:35:54 78° E 01:39:09 29° SSE
Gbstr 26 Del rocket 2.8 01:37:23 70° ENE 01:37:23 70° ENE 01:40:48 10° ESE
Cosmos 1470 3.3 01:33:53 10° N 01:36:15 43° N 01:36:15 43° N
USA 290 4.2 01:37:48 22° E 01:37:48 22° E 01:40:12 10° NE
Cosmos 1536 4.4 01:45:07 10° NNW 01:46:48 21° NW 01:46:48 21° NW
Cosmos 2333 4.4 01:42:50 10° NNW 01:48:31 70° ENE 01:54:11 10° SE
DMSP B5D2-2 4.3 01:45:23 20° SSE 01:49:00 70° ENE 01:54:11 10° N
Cosmos 1812 Rocket 3.5 01:49:34 54° SSE 01:50:27 76° E 01:54:49 10° NNE
Meteor 2-6 Rocket 4.3 01:49:06 45° SW 01:50:47 65° WNW 01:56:39 10° N
NOSS 3-4 (A) 4.2 01:46:36 10° NW 01:53:09 64° NE 02:00:55 10° SE
NOSS 3-4 (C) 4.2 01:47:08 10° NW 01:53:43 64° NE 02:01:28 10° SE
ISS -1.2 01:56:14 13° SE 01:56:14 13° SE 01:57:28 10° ESE
IDEFIX/ARIANE 42P 3.0 01:51:08 10° N 01:56:06 48° WNW 01:57:22 40° WSW
Meteor 2-20 4.5 01:54:40 30° S 01:57:55 80° E 02:04:05 10° NNE
COSMOS 2441 4.2 01:53:24 10° NNE 01:58:13 89° WNW 01:59:44 45° SSW
Envisat 3.3 01:53:47 10° NNE 01:58:49 61° E 02:01:23 28° S
Aureole 1 Rocket 3.9 01:55:52 10° NNW 01:59:54 52° ENE 02:04:56 10° SE
Cosmos 2084 Rocket 3.4 01:59:16 10° NW 02:03:28 80° NE 02:07:43 10° SE
ATLAS 2AS CENTAUR R/B 4.5 01:58:45 10° WNW 02:04:12 24° NNW 02:09:37 10° NE
Iridium 4 Rocket 3.3 02:03:00 34° S 02:05:03 83° E 02:10:09 10° N
MOZ.5/SAFIR/RUBIN 5/SL-8 3.7 02:05:31 42° SSW 02:06:55 62° WSW 02:11:33 10° NNW
Meteor 1-27 Rocket 4.2 02:03:31 20° S 02:07:39 61° E 02:13:30 10° NNE
H-2A R/B 2.3 02:06:25 28° SSE 02:08:09 68° ENE 02:11:44 10° N
USA 234 3.4 02:02:44 10° ESE 02:09:16 78° NNE 02:15:49 10° NW
Cosmos 1975 3.1 02:07:27 10° NNW 02:10:36 42° WNW 02:10:36 42° WNW
Cosmos 990 Rocket 3.8 02:06:28 10° NNW 02:11:36 74° WSW 02:15:53 15° SSE
ADEOS II 2.9 02:07:16 10° NNE 02:12:21 48° E 02:16:28 15° S
Cosmos 1763 Rocket 3.5 02:13:16 36° SW 02:15:27 75° WNW 02:20:46 10° NNE
Cosmos 1238 Rocket 2.9 02:15:06 38° SE 02:15:41 45° E 02:18:35 10° NNE
ALOS 2.4 02:12:22 10° NNE 02:16:56 67° ESE 02:19:31 25° S
COSMOS 2406 4.1 02:14:30 26° W 02:16:57 38° NW 02:22:20 10° NNE
COSMOS 2428 4.4 02:15:31 10° NNW 02:20:47 36° NE 02:26:00 10° ESE
SL-16 R/B 3.9 02:15:06 10° SE 02:20:51 41° ENE 02:26:40 10° N
CZ-2D R/B 2.2 02:15:42 10° NNE 02:20:59 75° ESE 02:24:32 21° S
ADEOS Rocket 3.7 02:16:32 10° N 02:23:55 60° WNW 02:28:49 24° SW
Spot 2 4.3 02:23:06 10° SSE 02:27:53 85° WSW 02:32:53 10° NNW
Cosmos 1898 Rocket 4.1 02:24:35 10° NNW 02:29:41 57° ENE 02:34:45 10° SE
Cosmos 1354 Rocket 4.2 02:29:00 10° NNW 02:34:04 48° WSW 02:38:18 14° S
Cosmos 2360 Rocket 2.4 02:31:09 10° NW 02:36:33 46° WSW 02:41:54 10° S
Cosmos 2333 Rocket 3.1 02:32:54 10° NW 02:37:36 27° WSW 02:39:00 25° SW
SL-19 R/B 4.4 02:32:32 10° NNE 02:38:14 81° ESE 02:43:25 14° SSW
Alouette 2 Rocket 3.1 02:34:19 10° NNW 02:38:24 80° WSW 02:41:40 12° S
USA 305 4.0 02:38:24 10° NNW 02:38:39 11° NNW 02:39:06 10° N
USA 281 4.2 02:38:17 23° WSW 02:39:53 25° W 02:45:08 10° NW
EP 1 4.3 02:37:47 10° NW 02:40:23 77° NE 02:43:12 10° SE
Meteor 2-10 Rocket 4.0 02:38:56 10° N 02:44:00 64° ENE 02:49:14 10° SSE
Cosmos 540 Rocket 3.8 02:41:18 25° SW 02:44:01 49° WNW 02:49:03 10° NNE
Cosmos 2221 3.8 02:43:58 21° W 02:44:58 23° WNW 02:48:18 10° NNW
Cosmos 2082 Rocket 4.2 02:41:35 10° WNW 02:45:11 17° NW 02:48:47 10° N
H-2A R/B 3.7 02:42:14 10° NE 02:45:45 29° E 02:49:13 10° SSE
Cosmos 1553 Rocket 4.4 02:41:02 10° S 02:47:09 65° E 02:53:22 10° NNE
USA 276 3.0 02:50:08 17° ESE 02:50:08 17° ESE 02:50:43 10° ESE
Resurs 1-4 Rocket 2.3 02:44:22 10° N 02:49:36 59° WNW 02:53:19 19° SW
Cosmos 468 Rocket 4.0 02:46:38 21° SSW 02:50:15 75° WNW 02:55:35 10° NNE
Cosmos 2322 Rocket 2.9 02:46:46 10° NW 02:51:44 32° WSW 02:56:37 10° SSW
BREEZE-M DEB (TANK) 3.2 02:50:12 15° WNW 02:52:37 87° N 03:01:14 10° ESE
DNEPR-1 R/B 4.3 02:49:36 10° NW 02:54:56 61° WSW 03:01:28 10° SSE
CZ-2C R/B 4.5 02:52:59 10° NE 02:57:01 25° E 03:00:55 10° SSE
Cosmos 1766 Rocket 3.7 02:53:21 10° NNW 02:57:34 50° W 03:01:40 10° S
Cosmos 1833 4.4 02:53:59 20° SW 02:57:58 60° WNW 03:03:37 10° NNE
ACS3 Solar Sail 3.8 02:56:26 10° NNW 02:58:35 12° NW 03:00:45 10° WNW
Cosmos 1271 Rocket 4.4 03:01:02 14° W 03:01:46 14° WNW 03:03:45 10° NNW
CRYOSAT 2 4.3 02:58:44 10° S 03:03:35 67° W 03:08:27 10° N
H-2A R/B 2.1 02:58:43 10° N 03:03:47 62° WNW 03:08:28 13° SSW
Cosmos 2219 Rocket 2.5 03:00:29 10° NW 03:05:47 43° WSW 03:11:05 10° S
Cosmos 2237 Rocket 4.0 03:00:35 10° NNW 03:05:48 35° NE 03:10:58 10° ESE
SL-16 R/B 3.8 03:03:24 10° WNW 03:06:14 14° W 03:06:38 14° WSW
SL-4 R/B 2.7 03:05:08 15° W 03:07:30 27° SW 03:10:43 10° SSE
Meteor 2-11 Rocket 4.4 03:02:18 10° NNW 03:08:24 66° W 03:14:28 10° S
SL-14 R/B 3.8 03:04:48 10° S 03:08:36 58° E 03:12:27 10° NNE
CZ-3 Stage 3 4.4 03:05:05 15° SW 03:11:29 34° SSE 03:33:09 10° ESE
USA 290 3.7 03:10:18 17° W 03:11:42 22° WNW 03:14:18 10° N
CZ-4C R/B 4.1 03:08:40 10° WNW 03:12:25 20° NNW 03:16:55 10° NE
ARGOS 3.3 03:09:23 10° NNE 03:14:49 79° ESE 03:20:11 10° SSW
USA 267 3.5 03:08:37 10° NE 03:15:08 67° NNW 03:21:22 11° WSW
Cosmos 1408 Rocket 4.1 03:11:29 10° N 03:15:45 60° ENE 03:19:57 10° SSE
Cosmos 1745 Rocket 4.4 03:10:20 10° N 03:16:30 67° ENE 03:22:34 10° SSE
METEOR-M 4.1 03:12:06 10° N 03:17:24 69° WNW 03:22:40 10° SSW
Gbstr 26 Del rocket 3.7 03:19:53 10° W 03:23:00 25° SW 03:26:09 10° SSE
Cosmos 2322 3.7 03:20:32 10° NNW 03:26:15 77° WSW 03:31:55 10° SSE
NOSS 3 (A) 4.4 03:29:29 10° NW 03:31:49 75° NE 03:34:51 10° SE
ISS -3.6 03:29:12 12° SW 03:32:11 65° SSE 03:35:33 10° ENE
Envisat 4.4 03:33:32 10° NNW 03:37:20 22° WNW 03:41:07 10° WSW
BREEZE-M DEB (TANK) 2.3 03:31:25 10° WSW 03:37:45 68° SSE 03:40:27 10° ENE
Meteor 2-4 Rocket 4.4 03:34:42 10° SW 03:39:35 35° WNW 03:44:29 10° N
Cosmos 1461 3.0 03:37:00 10° SW 03:40:39 49° NW 03:44:16 10° NNE
Meteor 1-28 Rocket 3.3 03:40:06 10° SSE 03:43:19 65° ENE 03:46:34 10° N
NOSS 3-4 (A) 4.4 03:37:39 10° NW 03:43:57 38° WSW 03:51:10 10° S
NOSS 3-4 (C) 4.4 03:38:11 10° NW 03:44:31 38° WSW 03:51:45 10° S
AQUA 4.0 03:40:24 10° N 03:44:59 56° WNW 03:49:32 10° SSW
NOSS 0 Rocket 3.9 03:40:24 10° NNW 03:46:36 79° WSW 03:52:45 10° SSE
Cosmos 1151 Rocket 2.9 03:44:14 10° SSW 03:48:25 74° W 03:52:41 10° N
PAYLOAD A 4.4 03:44:21 10° NNE 03:49:03 61° ESE 03:53:39 10° S
Cosmos 1500 Rocket 3.6 03:46:47 10° NNW 03:51:09 65° W 03:55:30 10° S
ADEOS II 3.2 03:47:16 10° N 03:51:39 28° WNW 03:56:01 10° WSW
USA 234 3.7 03:46:37 10° SSE 03:52:38 38° SW 03:58:40 10° WNW
CZ-3 R/B 4.0 03:51:09 10° WSW 04:09:06 28° SSW 04:16:22 10° SSE
